www.pogodaiklimat.ru

Погода и климат >> Архив погоды >> Россия >> Крым >> Симферополь


АРХИВ ПОГОДЫ в Симферополе

Время (UTC), дата Ветер
(напр.,м/с)
 
Видим.   Явления Облачность Т
(С)
Тd
(С)
f
(%)
Тe
(С)
Тes
(С)
Комфортность P
(гПа)
Po
(гПа)
Тmin
(С)
Tmax
(С)
R
(мм)
R24
(мм)
S
(см)
09 18.06 Ю 2 10 км 10/5 1000 м
[Cb calv Ac und]
+19.2 +13.2 68 +21 +24 комфорт 1010.7 989.7
12 18.06 СВ 6
{10}
10 км {ливн. осадки} 10/5 1200 м
[Cb calv Ac und]
+20.4 +13.8 66 +23 +23 комфорт 1010.6 989.7
15 18.06 СВ 4 10 км {ливн. осадки} 10/3 600 м
[Cb calv Ac und]
+17.6 +12.9 74 +17 +18 холодно 1011.0 989.9 0.1
18 18.06 С 3 10 км {ливн. осадки} 10/0
[Ac cast]
+16.4 +13.5 83 +16 +16 прохладно 1011.8 990.6 +21.4 0.1
21 18.06 СВ 3 10 км 10/0
[Ac und]
+16.4 +13.7 84 +16 +16 по сезону 1012.3 991.1
00 19.06 В 2 10 км 4/0
[Ac trans]
+14.7 +12.7 88 +14 +14 по сезону 1011.6 990.2
03 19.06 В 3 10 км 5/0
[Ac cast]
+14.2 +12.9 92 +13 +13 холодно 1011.7 990.3
06 19.06 В 4 10 км 4/1 1000 м
[Cb calv Ac cast]
+20.6 +15.4 72 +24 +28 комфорт 1011.4 990.5 +13.2
09 19.06 В 5 10 км гроза, ливневой дождь 10/8 600 м
[Cb cap Ac und]
+16.9 +13.6 81 +16 +17 очень
холодно
1011.8 990.6
12 19.06 СВ 4 10 км гроза без осадков {ливн. осадки} 8/5 720 м
[Cb cap Ac trans]
+21.4 +17.0 76 +25 +28 комфорт 1010.6 989.8
15 19.06 СВ 7-10
{11}
10 км {гроза} 3/1 1000 м
[Cb calv Ac trans]
+24.0 +11.3 45 +25 +26 комфорт 1010.3 989.6 2
18 19.06 СВ 3
{10}
10 км {гроза} 3/0
[Ac trans]
+18.1 +11.7 66 +18 +18 по сезону 1011.3 990.2 +25.0 2
21 19.06 ЮВ 2 10 км ясно +15.6 +12.5 82 +15 +15 по сезону 1011.7 990.4
00 20.06 ЮВ 3 10 км 3/0
[Ci fib]
+14.7 +11.8 83 +14 +14 по сезону 1011.1 989.7
03 20.06 ЮВ 2 10 км 4/0
[Ac trans]
+14.5 +11.5 82 +14 +15 прохладно 1010.5 989.1
06 20.06 СВ 3 10 км 10/0
[Ac und]
+22.7 +11.8 50 +25 +27 комфорт 1010.5 989.7 +12.7
09 20.06 С 5 10 км 5/3 1500 м
[Cu med, cong Ac trans]
+26.0 +11.4 40 +27 +33 жарко 1010.1 989.6
12 20.06 С 3 10 км 10/5 1500 м
[Sc diur, vesp Ac und]
+25.9 +12.4 43 +27 +29 жарко 1009.8 989.3
15 20.06 З 3 10 км 8/1 1000 м
[Cb calv Ac trans]
+26.3 +14.4 48 +29 +30 жарко 1009.0 988.5
18 20.06 ЮЗ 3 10 км в посл. час ливневой дождь 8/3 1000 м
[Cb calv Ac trans]
+20.8 +17.0 79 +25 +25 комфорт 1010.4 989.5 +28.2 0.1
21 20.06 Ю 3 10 км ясно +17.3 +14.8 85 +17 +17 по сезону 1011.0 989.9
00 21.06 Ю 2 10 км ясно +16.6 +13.5 82 +17 +17 тепло 1010.6 989.4
03 21.06 ЮВ 4 10 км 1/0
[Ac trans]
+17.0 +14.3 84 +17 +17 по сезону 1009.9 988.8 +15.8 0.1
06 21.06 З 3 10 км ясно +25.5 +16.4 57 +29 +37 душно 1009.0 988.5 +15.8
09 21.06 З 5 10 км 3/3 1000 м
[Cu med, cong]
+27.7 +16.3 50 +31 +38 душно 1008.8 988.4
12 21.06 З 7-11
{11}
10 км 3/3 1000 м
[Cb calv]
+28.7 +13.4 39 +30 +33 жарко 1008.4 988.1
15 21.06 З 7 10 км 4/1 1500 м
[Sc diur, vesp Ci ing]
+26.5 +14.3 47 +29 +30 жарко 1008.4 988.0
18 21.06 Ю 4
{10}
10 км 4/0
[Ci fib]
+20.4 +15.0 71 +23 +23 комфорт 1009.8 988.9 +29.6
21 21.06 Ю 3 10 км 5/0
[Ac trans Ci fib]
+17.7 +14.2 80 +18 +18 по сезону 1011.3 990.2
00 22.06 Ю 3 10 км 5/0
[Ac trans]
+16.8 +13.5 81 +17 +17 тепло 1010.6 989.4
03 22.06 Ю 2 10 км 8/1 1000 м
[Cb calv Ac trans]
+18.0 +15.4 85 +19 +19 тепло 1010.7 989.6
06 22.06 З 3 10 км 10/3 1000 м
[Cb calv Ac As]
+20.9 +18.5 86 +26 +27 душно 1011.7 990.8 +16.4
09 22.06 Ю 1 10 км в посл. час гроза 10/5 1000 м
[Cb calv Ci sp]
+24.4 +18.3 69 +29 +38 душно 1012.3 991.7
12 22.06 10 км {гроза} н/о +26.1 +15.5 52 +29 +33 жарко 1012.0 991.5
15 22.06 З 7-11
{11}
10 км 4/1 1500 м
[Cu med, cong Ci fib]
+25.1 +11.3 42 +26 +27 жарко 1012.3 991.7
18 22.06 ЮЗ 3
{11}
10 км 5/1 1000 м
[Cb calv Ci fib]
+17.8 +11.4 66 +18 +18 по сезону 1013.9 992.7 +27.0
21 22.06 Ю 4 10 км 10/0
[Ac trans Ci fib]
+16.0 +12.7 81 +15 +15 прохладно 1015.0 993.7
00 23.06 Ю 3 10 км 3/0
[Ci fib]
+14.8 +11.4 80 +14 +14 по сезону 1014.8 993.4
03 23.06 ЮВ 3 10 км 8/0
[Ac trans]
+16.0 +12.7 81 +16 +16 прохладно 1014.3 993.0
06 23.06 ЮЗ 5 10 км 9/0
[Ac trans]
+21.8 +16.1 70 +26 +28 душно 1014.6 993.7 +14.1
09 23.06 ЮЗ 6 10 км 8/3 600 м
[Cu med, cong Ac trans Ci fib]
+24.0 +16.8 64 +28 +31 душно 1014.4 993.7
12 23.06 ЮЗ 10-13
{13}
10 км 5/1 1470 м
[Cu hum Ac trans]
+26.4 +12.1 41 +28 +28 жарко 1012.5 991.9
15 23.06 ЮЗ 8 10 км 4/0
[Ci fib]
+25.0 +15.3 55 +28 +29 жарко 1011.1 990.5
18 23.06 ЮЗ 5
{12}
10 км 5/0
[Ci sp]
+20.5 +17.1 81 +24 +24 комфорт 1011.3 990.4 +27.0
21 23.06 Ю 7-10
{11}
10 км 8/0
[Ac trans]
+20.5 +16.3 77 +23 +23 комфорт 1009.2 988.3
00 24.06 Ю 4
{15}
5000 м гроза, ливневой дождь 10/8 660 м
[Cb calv Ac und]
+17.8 +17.3 97 +18 +18 тепло 1010.4 989.3
03 24.06 Ю 9-11
{11}
10 км гроза без осадков {ливн. осадки} 10/5 840 м
[Cb calv Ac As]
+18.1 +16.3 89 +17 +17 по сезону 1008.0 987.0 +17.2 18
06 24.06 З 4
{12}
10 км слабый ливневой дождь {гроза} 9/9 1110 м
[Cb calv]
+21.9 +18.1 79 +27 +27 душно 1008.5 987.8 +17.2 18
09 24.06 З 4 10 км гроза без осадков {ливн. осадки} 10/8 1000 м
[Cb cap Ci fib]
+22.0 +18.6 81 +27 +29 душно 1008.6 987.9
12 24.06 З 7
{10}
10 км {гроза, ливн. осадки} 4/4 600 м
[Cb calv]
+24.5 +15.7 58 +28 +30 душно 1009.1 988.5
15 24.06 З 6 10 км 3/3 1000 м
[Cb calv]
+23.1 +18.4 75 +29 +30 очень
душно
1009.7 989.0
18 24.06 ЮЗ 2 10 км 5/1 1500 м
[Sc diur, vesp Ac trans Ci fib]
+19.3 +18.0 92 +22 +22 комфорт 1011.9 990.9 +24.8
21 24.06 Ю 3 10 км ясно +17.8 +17.2 96 +18 +18 по сезону 1013.0 991.9
00 25.06 Ю 3 10 км 3/0
[Ci fib]
+16.4 +15.9 97 +16 +16 по сезону 1014.0 992.7
03 25.06 Ю 3 10 км ясно +17.4 +16.4 94 +17 +18 по сезону 1014.7 993.5
06 25.06 ЮЗ 4 10 км 6/1 1500 м
[Cu hum Ac trans]
+22.7 +17.2 71 +28 +31 душно 1015.2 994.4 +16.3

 

Местоположение метеостанции Симферополь (Крым, Россия): широта 45.03 долгота 33.97 высота над уровнем моря 181 м.

В архиве по умолчанию представлена погода в Симферополе за последнюю неделю. Архивные данные за месяц целиком и за предыдущие месяцы, начиная с января 2011 года, Вы можете получить, выбрав интересующий диапазон дат из раскрывающегося списка и нажав кнопку "Ввод!".

Внимание! Время в таблицах - всемирное. Для получения местного времени необходимо прибавить поправку, которая в Симферополе равна 3 ч.

Смотрите также архив погоды в соседних городах и на ближайших метеорологических станциях:

Погода в Белогорске (Крым, Россия) (50 км)
Погода в Евпатории (Крым, Россия) (50 км)
Погода в Алуште (Крым, Россия) (52 км)
Погода в Севастополе (город Севастополь, Россия) (57 км)
Погода в Клепинино (Крым, Россия) (58 км)
Погода в Никитском саду (Крым, Россия) (61 км)
Погода в Ай-Петри (Крым, Россия) (63 км)
Погода в Ялте (Крым, Россия) (63 км)
Погода в Херсонесском Маяке (город Севастополь, Россия) (68 км)
Погода в Стрелковом (Херсонская область, Украина) (74 км)

Пояснения к столбцам:

Ветер - указаны скорость ветра в м/с - средняя за 10 мин, порывы в срок и между сроками (в фигурных скобках) и направление, откуда дует ветер: С - северный, СВ - северо-восточный, В - восточный, ЮВ - юго-восточный, Ю - южный, ЮЗ - юго-западный, З - западный, СЗ - северо-западный.
Видимость - горизонтальная дальность видимости в метрах или километрах. При видимости от 1 до 10 км при отсутствии осадков обычно наблюдается дымка, при ухудшении видимости до 1 км и менее - туман. В сухую погоду видимость может ухудшаться дымом, пылью или мглою.
Явления - указаны атмосферные явления, наблюдавшиеся в срок или в последний час перед сроком; фигурными скобками обозначены явления, наблюдавшиеся между сроками (за 1-3 часа до срока); квадратными скобками обозначены град или гололедные отложения с указанием их диаметра в мм.
Облачность - указаны через наклонную черту общая и нижняя облачность в баллах и высота нижней границы облаков в метрах; квадратными скобками обозначены формы облаков: Ci - перистые, Cs - перисто-слоистые, Cc - перисто-кучевые, Ac - высококучевые, As - высокослоистые, Sc - слоисто-кучевые, Ns - слоисто-дождевые, Cu - кучевые, Cb - кучево-дождевые. Подробнее классификацию облаков см. в Атласе облаков (PDF).
T - Температура воздуха - температура, измеренная на высоте 2 м над землей.
Td - Температура точки росы - температура, при понижении до которой содержащийся в воздухе водяной пар достигнет насыщения.
f - Относительная влажность воздуха - влажноcть воздуха, измеренная на высоте 2 м над землей.
Te - Эффективная температура - температура, которую ощущает одетый по сезону человек в тени. Характеристика душности погоды. При расчете учитывается влияние влажности воздуха и скорости ветра на теплоощущения человека.
Tes - Эффективная температура на солнце - температура, которую ощущает человек, с поправкой на солнечный нагрев. Характеристика знойности погоды. Зависит от высоты солнца над горизонтом, облачности и скорости ветра. Ночью, в пасмурную погоду, а также при ветре 12 м/с и более поправка равна нулю.
P - Атмосферное давление - приведенное к уровню моря атмосферное давление.
Po - Атмосферное давление - измеренное на уровне метеостанции атмосферное давление.
Tmin - Минимальная температура - минимум температуры воздуха на высоте 2 м над землей.
Tmax - Максимальная температура - максимум температуры воздуха на высоте 2 м над землей.
R - Количество осадков - Количество выпавших осадков за период времени, мм. При наведении курсора мыши на число - период времени, за который выпало указанное количество осадков.
R24 - Количество осадков - Количество выпавших осадков за 24 часа, мм.
S - Снежный покров - Высота снежного покрова, см. При наведении курсора мыши на число - состояние снежного покрова и степень покрытия местности в баллах.